FW7746 Weather Reports


time (UTC)temp
C
wind
direction
speed
KPH
gust
KPH
rain 1hr
cm
rain 24hr
cm
rain mn
cm
humidity
%
barometer
mb
20260903001104 13 215 0.0 8.0 0.00 0.18 0.18 76 1007.7
20260903000604 13 159 0.0 8.0 0.00 0.18 0.18 75 1007.6
20260903000104 13 107 1.6 19.3 0.00 0.18 0.18 76 1007.5
20260902235604 13 138 1.6 9.7 0.00 0.18 0.18 76 1007.3
20260902235104 13 130 0.0 8.0 0.00 0.18 0.18 77 1007.3
20260902234604 13 163 0.0 4.8 0.00 0.18 0.18 77 1007.2
20260902234104 12 156 0.0 4.8 0.00 0.18 0.18 78 1007.2
20260902233104 12 120 0.0 4.8 0.00 0.18 0.18 80 1007.1
20260902232604 12 194 1.6 16.1 0.00 0.18 0.18 80 1007.0
20260902232104 12 149 0.0 8.0 0.00 0.18 0.18 80 1006.9
20260902231603 12 158 1.6 8.0 0.00 0.18 0.18 81 1006.8
20260902230604 12 123 0.0 3.2 0.00 0.18 0.18 81 1007.0
20260902230104 12 119 0.0 4.8 0.00 0.18 0.18 82 1007.0
20260902225603 13 150 0.0 0.0 0.00 0.18 0.18 82 1007.0
20260902225104 13 201 0.0 9.7 0.00 0.18 0.18 82 1007.0
20260902224604 13 172 0.0 3.2 0.00 0.18 0.18 82 1007.0
20260902223604 12 121 0.0 3.2 0.00 0.18 0.18 81 1006.7
20260902223104 12 208 0.0 3.2 0.00 0.18 0.18 82 1006.6
20260902222604 12 169 1.6 11.3 0.00 0.18 0.18 82 1006.4
20260902222104 12 198 1.6 4.8 0.00 0.18 0.18 83 1006.3
20260902221604 12 196 0.0 4.8 0.00 0.18 0.18 83 1006.2
20260902221104 12 166 0.0 4.8 0.00 0.18 0.18 84 1006.2
20260902220604 12 191 0.0 4.8 0.00 0.18 0.18 84 1006.1
20260902220104 12 219 1.6 9.7 0.00 0.18 0.18 82 1006.3
20260902215604 12 229 0.0 11.3 0.00 0.18 0.18 83 1006.3
20260902215104 12 186 0.0 3.2 0.00 0.18 0.18 83 1006.2
20260902214605 12 182 1.6 12.9 0.03 0.18 0.18 83 1006.3
20260902214104 12 150 0.0 8.0 0.03 0.18 0.18 83 1006.4
20260902213603 12 163 1.6 4.8 0.03 0.18 0.18 83 1006.5
20260902213104 12 207 1.6 8.0 0.03 0.18 0.18 83 1006.5
20260902212604 12 73 1.6 8.0 0.03 0.18 0.18 83 1006.5
20260902212104 12 158 0.0 3.2 0.03 0.18 0.18 84 1006.6
20260902211604 12 143 1.6 14.5 0.03 0.18 0.18 84 1006.5
20260902211104 12 156 0.0 4.8 0.03 0.18 0.18 85 1006.6
20260902210604 11 132 0.0 9.7 0.03 0.18 0.18 85 1006.5
20260902210105 11 214 0.0 4.8 0.05 0.18 0.18 85 1006.4
20260902205604 11 174 0.0 4.8 0.05 0.18 0.18 86 1006.4
20260902204604 11 120 0.0 4.8 0.05 0.15 0.15 86 1006.3
20260902204104 11 161 0.0 3.2 0.05 0.15 0.15 86 1006.3
20260902203604 11 170 0.0 1.6 0.05 0.15 0.15 86 1006.2
20260902203104 11 196 3.2 12.9 0.05 0.15 0.15 85 1006.2
20260902202604 11 101 1.6 8.0 0.05 0.15 0.15 86 1006.2
20260902202104 11 177 1.6 4.8 0.08 0.15 0.15 86 1006.3
20260902201603 10 160 1.6 8.0 0.08 0.15 0.15 87 1006.2
20260902201104 10 135 1.6 8.0 0.10 0.15 0.15 86 1006.4
20260902200104 11 217 0.0 4.8 0.10 0.13 0.13 86 1006.6
20260902195604 11 121 0.0 3.2 0.10 0.13 0.13 85 1006.6
20260902195104 11 145 0.0 3.2 0.10 0.13 0.13 86 1006.6
20260902194104 11 183 0.0 4.8 0.10 0.10 0.10 85 1006.6
20260902193604 11 162 0.0 4.8 0.10 0.10 0.10 86 1006.7
20260902193104 11 171 0.0 3.2 0.10 0.10 0.10 86 1006.7
20260902192604 11 160 0.0 4.8 0.10 0.10 0.10 85 1006.6
20260902192104 11 180 3.2 12.9 0.08 0.08 0.08 84 1006.7
20260902191104 11 120 0.0 4.8 0.05 0.05 0.05 84 1006.8
20260902190604 12 192 0.0 3.2 0.05 0.05 0.05 83 1006.8
20260902190105 12 230 0.0 4.8 0.03 0.03 0.03 82 1006.8
20260902185604 12 214 1.6 4.8 0.03 0.03 0.03 80 1006.8
20260902185103 12 128 0.0 1.6 0.03 0.03 0.03 78 1006.7
20260902184604 12 145 0.0 3.2 0.00 0.00 0.00 76 1006.7
20260902184104 13 136 0.0 1.6 0.00 0.00 0.00 74 1006.6
20260902183104 13 150 0.0 3.2 0.00 0.00 0.00 69 1006.5
20260902182604 13 134 1.6 4.8 0.00 0.00 0.00 68 1006.5
20260902181604 14 169 0.0 12.9 0.00 0.00 0.00 61 1006.4
20260902181104 14 174 4.8 19.3 0.00 0.00 0.00 57 1006.4
20260902180604 14 139 0.0 8.0 0.00 0.00 0.00 56 1006.3
20260902175104 14 232 1.6 8.0 0.00 0.00 0.00 57 1006.2
20260902174604 14 206 0.0 8.0 0.00 0.00 0.00 58 1006.2
20260902174104 13 137 0.0 4.8 0.00 0.00 0.00 58 1006.2
20260902173604 13 101 1.6 12.9 0.00 0.00 0.00 58 1006.2
20260902173104 13 169 0.0 8.0 0.00 0.00 0.00 58 1006.1
20260902172603 13 141 1.6 14.5 0.00 0.00 0.00 58 1006.1
20260902171104 13 205 1.6 9.7 0.00 0.00 0.00 60 1006.0
20260902170604 13 117 0.0 8.0 0.00 0.00 0.00 61 1006.0
20260902170105 13 120 1.6 16.1 0.00 0.00 0.00 62 1006.0
20260902165604 13 133 1.6 12.9 0.00 0.00 0.00 62 1005.9
20260902165104 13 150 3.2 8.0 0.00 0.00 0.00 62 1005.9
20260902164605 13 146 1.6 12.9 0.00 0.00 0.00 62 1005.9
20260902164104 13 180 1.6 4.8 0.00 0.00 0.00 63 1005.7
20260902163604 13 164 0.0 11.3 0.00 0.00 0.00 63 1005.8
20260902162604 13 132 0.0 4.8 0.00 0.00 0.00 65 1006.0
20260902162104 13 127 1.6 8.0 0.00 0.00 0.00 66 1006.0
20260902161604 13 138 1.6 8.0 0.00 0.00 0.00 66 1006.1
20260902161104 13 121 0.0 4.8 0.00 0.00 0.00 66 1006.1
20260902160104 12 161 0.0 4.8 0.00 0.00 0.00 67 1006.1
20260902155604 13 192 0.0 3.2 0.00 0.00 0.00 68 1006.2
20260902154604 12 199 0.0 0.0 0.00 0.00 0.00 69 1006.3
20260902153605 12 202 0.0 0.0 0.00 0.00 0.00 71 1006.4
20260902153104 12 214 0.0 1.6 0.00 0.00 0.00 71 1006.4
20260902152604 12 121 0.0 0.0 0.00 0.00 0.00 72 1006.6
20260902151604 12 218 0.0 3.2 0.00 0.00 0.00 73 1006.7
20260902151105 12 235 0.0 4.8 0.00 0.00 0.00 73 1006.7
20260902150604 12 222 0.0 4.8 0.00 0.00 0.00 73 1007.0
20260902150105 12 217 0.0 0.0 0.00 0.00 0.00 73 1007.0
20260902145604 12 217 0.0 3.2 0.00 0.00 0.00 73 1007.0
20260902145104 12 214 0.0 4.8 0.00 0.00 0.00 73 1007.0
20260902144604 12 189 0.0 1.6 0.00 0.00 0.00 73 1007.1
20260902144104 12 196 0.0 1.6 0.00 0.00 0.00 74 1007.1
20260902143604 11 85 0.0 3.2 0.00 0.00 0.00 74 1007.1
20260902143104 11 85 0.0 4.8 0.00 0.00 0.00 74 1007.1
20260902142104 11 181 0.0 0.0 0.00 0.00 0.00 75 1007.1
20260902141605 11 182 0.0 3.2 0.00 0.00 0.00 75 1007.1
20260902141104 11 173 0.0 0.0 0.00 0.00 0.00 76 1007.1
20260902140604 11 173 0.0 4.8 0.00 0.00 0.00 76 1007.2
20260902140105 11 148 0.0 0.0 0.00 0.00 0.00 76 1007.1
20260902135605 11 148 0.0 0.0 0.00 0.00 0.00 76 1007.2
20260902135104 11 120 0.0 0.0 0.00 0.00 0.00 76 1007.2
20260902134104 11 115 0.0 0.0 0.00 0.00 0.00 76 1007.2
20260902133604 11 113 0.0 0.0 0.00 0.00 0.00 77 1007.2
20260902133105 11 113 0.0 0.0 0.00 0.00 0.00 77 1007.2
20260902132604 11 113 0.0 0.0 0.00 0.00 0.00 78 1007.2
20260902132104 11 113 0.0 0.0 0.00 0.00 0.00 78 1007.2
20260902131604 11 113 0.0 0.0 0.00 0.00 0.00 78 1007.3
20260902131104 11 113 0.0 0.0 0.00 0.00 0.00 78 1007.3
20260902130604 11 113 0.0 0.0 0.00 0.00 0.00 78 1007.3
20260902130105 11 113 0.0 0.0 0.00 0.00 0.00 78 1007.4
20260902125605 11 113 0.0 4.8 0.00 0.00 0.00 78 1007.4
20260902125104 11 225 0.0 1.6 0.00 0.00 0.00 77 1007.4
20260902124604 11 235 0.0 3.2 0.00 0.00 0.00 77 1007.4
20260902124104 11 156 0.0 4.8 0.00 0.00 0.00 77 1007.4
20260902123604 11 151 0.0 0.0 0.00 0.00 0.00 76 1007.4
20260902123104 11 151 0.0 0.0 0.00 0.00 0.00 76 1007.5
20260902122104 11 151 0.0 1.6 0.00 0.00 0.00 76 1007.6
20260902121604 11 151 0.0 0.0 0.00 0.00 0.00 76 1007.6
20260902121104 11 151 0.0 0.0 0.00 0.00 0.00 76 1007.6
20260902120604 11 151 0.0 0.0 0.00 0.00 0.00 76 1007.6
20260902120105 11 151 0.0 0.0 0.00 0.00 0.00 76 1007.6
20260902115604 11 151 0.0 0.0 0.00 0.00 0.00 76 1007.7
20260902115104 11 151 0.0 0.0 0.00 0.00 0.00 76 1007.7
20260902114604 11 151 0.0 1.6 0.00 0.00 0.00 76 1007.7
20260902113605 11 151 0.0 0.0 0.00 0.00 0.00 76 1007.8
20260902113104 11 151 0.0 0.0 0.00 0.00 0.00 76 1007.7
20260902112104 11 151 0.0 0.0 0.00 0.00 0.00 76 1007.8
20260902111604 11 151 0.0 0.0 0.00 0.00 0.00 76 1007.8
20260902111104 11 151 0.0 0.0 0.00 0.00 0.00 76 1007.8
20260902110105 11 151 0.0 1.6 0.00 0.00 0.00 76 1007.9
20260902105605 11 151 0.0 0.0 0.00 0.00 0.00 77 1007.9
20260902105104 11 151 0.0 0.0 0.00 0.00 0.00 78 1007.9
20260902104605 10 151 0.0 0.0 0.00 0.00 0.00 78 1007.9
20260902104104 10 151 0.0 0.0 0.00 0.00 0.00 78 1008.0
20260902103604 10 151 0.0 0.0 0.00 0.00 0.00 78 1008.0
20260902103104 10 151 0.0 0.0 0.00 0.00 0.00 78 1007.9
20260902102604 10 151 0.0 0.0 0.00 0.00 0.00 78 1008.0
20260902102104 10 151 0.0 0.0 0.00 0.00 0.00 79 1008.0
20260902101604 10 151 0.0 0.0 0.00 0.00 0.00 79 1008.1
20260902101104 10 151 0.0 0.0 0.00 0.00 0.00 80 1008.1
20260902100604 10 151 0.0 0.0 0.00 0.00 0.00 80 1008.1
20260902100105 10 151 0.0 0.0 0.00 0.00 0.00 80 1008.2
20260902095605 10 151 0.0 0.0 0.00 0.00 0.00 81 1008.2
20260902095105 9 151 0.0 0.0 0.00 0.00 0.00 81 1008.2
20260902093105 9 151 0.0 0.0 0.00 0.00 0.00 82 1008.4
20260902092604 9 151 0.0 0.0 0.00 0.00 0.00 81 1008.4
20260902092104 9 151 0.0 0.0 0.00 0.00 0.00 81 1008.3
20260902091605 9 151 0.0 0.0 0.00 0.00 0.00 81 1008.3
20260902091104 9 151 0.0 0.0 0.00 0.00 0.00 80 1008.3
20260902090604 9 151 0.0 0.0 0.00 0.00 0.00 81 1008.4
20260902090104 10 151 0.0 0.0 0.00 0.00 0.00 80 1008.5
20260902085605 10 151 0.0 0.0 0.00 0.00 0.00 78 1008.5
20260902085104 10 151 0.0 0.0 0.00 0.00 0.00 78 1008.5
20260902084104 10 151 0.0 0.0 0.00 0.00 0.00 77 1008.2
20260902083604 10 151 0.0 0.0 0.00 0.00 0.00 77 1008.2
20260902083104 10 151 0.0 0.0 0.00 0.00 0.00 77 1008.3
20260902082104 10 151 0.0 0.0 0.00 0.00 0.00 76 1008.1
20260902081604 11 151 0.0 0.0 0.00 0.00 0.00 76 1008.0
20260902081104 11 151 0.0 0.0 0.00 0.00 0.00 76 1008.0
20260902075605 11 151 0.0 0.0 0.00 0.00 0.00 75 1007.9
20260902075104 11 151 0.0 0.0 0.00 0.00 0.00 75 1007.9
20260902074604 11 151 0.0 0.0 0.00 0.00 0.00 74 1007.9
20260902073104 11 151 0.0 0.0 0.00 0.00 0.00 74 1007.8
20260902072605 11 151 0.0 0.0 0.00 0.00 0.00 74 1007.8
20260902071604 11 159 0.0 0.0 0.00 0.00 0.00 74 1007.7
20260902070604 11 159 0.0 0.0 0.00 0.00 0.00 73 1007.6
20260902070105 11 159 0.0 0.0 0.00 0.00 0.00 73 1007.4
20260902065604 11 159 0.0 0.0 0.00 0.00 0.00 72 1007.5
20260902065104 12 159 0.0 0.0 0.00 0.00 0.00 71 1007.5
20260902064104 12 159 0.0 0.0 0.00 0.00 0.00 71 1007.7
20260902063604 12 159 0.0 0.0 0.00 0.00 0.00 70 1007.7
20260902063104 12 159 0.0 0.0 0.00 0.00 0.00 69 1007.8
20260902062604 12 159 0.0 0.0 0.00 0.00 0.00 70 1007.8
20260902061604 12 159 0.0 0.0 0.00 0.00 0.00 70 1007.7
20260902061104 12 159 0.0 0.0 0.00 0.00 0.00 69 1007.9
20260902060604 12 159 0.0 0.0 0.00 0.00 0.00 69 1007.8
20260902060104 12 159 0.0 0.0 0.00 0.00 0.00 68 1007.8
20260902055604 30 232 0.0 0.0 0.00 0.00 0.00 21 1010.4